GW4855 Weather Reports


time (UTC)temp
F
wind
direction
speed
knots
gust
knots
rain 1hr
in
rain 24hr
in
rain mn
in
humidity
%
barometer
mb
20260504081534 49 22 10.4 17.4 0.00 0.00 0.00 53 1015.0
20260504044540 57 19 13.9 19.1 0.00 0.00 0.00 38 1009.0
20260504043043 58 15 13.9 18.2 0.00 0.00 0.00 38 1008.6
20260504041536 58 17 14.8 20.0 0.00 0.00 0.00 37 1008.2
20260504040035 59 17 13.9 19.1 0.00 0.00 0.00 37 1008.0
20260504034552 59 32 13.9 20.0 0.00 0.00 0.00 37 1007.9
20260504033042 60 26 15.6 20.9 0.00 0.00 0.00 36 1007.5
20260504031536 61 23 15.6 20.0 0.00 0.00 0.00 34 1007.2
20260504030034 61 28 11.3 14.8 0.00 0.00 0.00 30 1007.0
20260504024541 59 32 6.1 7.8 0.00 0.00 0.00 29 1006.7
20260504023040 63 26 6.1 8.7 0.00 0.00 0.00 26 1006.8
20260504021537 67 20 7.8 12.2 0.00 0.00 0.00 24 1006.7
20260504020051 69 360 10.4 14.8 0.00 0.00 0.00 23 1006.8
20260504014551 70 352 9.6 13.0 0.00 0.00 0.00 22 1006.8
20260504013041 72 348 7.8 13.9 0.00 0.00 0.00 21 1006.7
20260504011542 73 339 10.4 14.8 0.00 0.00 0.00 20 1006.8
20260504010037 73 5 10.4 15.6 0.00 0.00 0.00 19 1006.8
20260504004535 74 350 10.4 14.8 0.00 0.00 0.00 19 1006.9
20260504003041 75 339 10.4 16.5 0.00 0.00 0.00 19 1007.0
20260504001542 75 344 9.6 15.6 0.00 0.00 0.00 18 1007.0
20260504000045 75 343 7.0 13.0 0.00 0.00 0.00 17 1007.1
20260503234534 75 326 7.8 12.2 0.00 0.00 0.00 17 1007.2
20260503233041 76 281 8.7 17.4 0.00 0.00 0.00 17 1007.4
20260503231541 75 297 6.1 13.0 0.00 0.00 0.00 17 1007.4
20260503230049 76 271 8.7 15.6 0.00 0.00 0.00 18 1007.5
20260503224537 76 232 7.8 14.8 0.00 0.00 0.00 17 1007.7
20260503223042 75 265 4.3 13.0 0.00 0.00 0.00 17 1007.9
20260503221534 74 279 8.7 17.4 0.00 0.00 0.00 17 1008.1
20260503220040 74 269 8.7 13.9 0.00 0.00 0.00 17 1008.2
20260503214541 75 283 11.3 17.4 0.00 0.00 0.00 17 1008.2
20260503213037 74 340 6.1 25.2 0.00 0.00 0.00 18 1008.7
20260503211603 74 290 7.0 16.5 0.00 0.00 0.00 19 1009.0
20260503210040 74 279 9.6 14.8 0.00 0.00 0.00 18 1009.1
20260503204540 73 279 7.0 15.6 0.00 0.00 0.00 18 1009.4
20260503203048 72 297 6.1 14.8 0.00 0.00 0.00 20 1009.7
20260503201541 72 329 7.0 13.9 0.00 0.00 0.00 20 1009.9
20260503200054 72 318 7.0 16.5 0.00 0.00 0.00 20 1010.0
20260503194544 71 313 4.3 11.3 0.00 0.00 0.00 21 1010.3
20260503193045 72 304 9.6 14.8 0.00 0.00 0.00 20 1010.5
20260503191542 71 289 7.8 16.5 0.00 0.00 0.00 21 1010.8
20260503190035 71 264 8.7 13.0 0.00 0.00 0.00 21 1010.9
20260503184543 70 293 4.3 13.9 0.00 0.00 0.00 23 1011.0
20260503183041 70 279 9.6 14.8 0.00 0.00 0.00 22 1011.2
20260503181547 70 271 8.7 15.6 0.00 0.00 0.00 22 1011.2
20260503180051 70 281 4.3 12.2 0.00 0.00 0.00 23 1011.6
20260503174547 69 319 8.7 14.8 0.00 0.00 0.00 25 1011.7
20260503173052 68 325 6.1 12.2 0.00 0.00 0.00 25 1011.9
20260503171535 67 268 7.0 12.2 0.00 0.00 0.00 28 1012.0